Date String (YYYY-MM-DD hh:mm:ss) UTC,Instrument flags,Ambient pressure (hPa),Sample flow (lpm),Bypass flow (lpm),Sample temperature (°C),Ambient temperature (°C),ASC tube jacket temperature (°C),LED temperature (°C),Box temperature (°C),Sample RH (%),Span deviation,Mass concentration (μg/m³),Mass concentration (μg/m³),Mass concentration (μg/m³)
DateTimeUTC,F1_M11,P_M11,Q1_M11,Q2_M11,T1_M11,T2_M11,T3_M11,T4_M11,T5_M11,U1_M11,ZSPAN_M11,X0_M11,X2_M11,X1_M11
2022-11-13 23:00:00,,0820.4,5.00,0.00,24.1,22.8,00.0,32.9,26.0,08.2,0000.0,0013.75,0004.83,0003.81
2022-11-13 23:01:00,,0820.4,4.99,0.00,24.1,22.8,00.0,32.9,26.0,08.2,0000.0,0012.96,0004.63,0003.67
2022-11-13 23:02:00,,0820.4,5.00,0.00,24.1,22.8,00.0,32.9,26.0,08.2,0000.0,0012.01,0004.46,0003.53
2022-11-13 23:03:00,,0820.5,5.01,0.00,24.1,22.8,00.0,32.9,26.0,08.2,0000.0,0013.21,0004.29,0003.37
2022-11-13 23:04:00,,0820.6,5.01,0.00,24.1,22.8,00.0,32.9,26.0,08.2,0000.0,0013.51,0004.06,0003.21
2022-11-13 23:05:00,,0820.5,5.00,0.00,24.1,22.8,00.0,32.9,26.0,08.1,0000.0,0013.25,0003.89,0003.05
2022-11-13 23:06:00,,0820.5,4.98,0.00,24.1,22.8,00.0,32.9,26.0,07.9,0000.0,0013.33,0003.77,0002.86
2022-11-13 23:07:00,,0820.6,4.99,0.00,24.1,22.7,00.0,32.9,26.0,07.7,0000.0,0013.36,0003.69,0002.69
2022-11-13 23:08:00,,0820.6,5.01,0.00,24.1,22.6,00.0,32.9,26.0,07.5,0000.0,0013.28,0003.64,0002.53
2022-11-13 23:09:00,,0820.6,5.00,0.00,24.1,22.5,00.0,32.9,26.0,07.4,0000.0,0012.66,0003.57,0002.39
2022-11-13 23:10:00,,0820.7,5.00,0.00,24.1,22.5,00.0,32.9,26.0,07.4,0000.0,0013.03,0003.48,0002.21
2022-11-13 23:11:00,,0820.6,5.00,0.00,24.1,22.4,00.0,32.9,25.9,07.4,0000.0,0013.67,0003.37,0002.06
2022-11-13 23:12:00,,0820.6,5.00,0.00,24.1,22.4,00.0,32.9,25.9,07.4,0000.0,0014.32,0003.33,0001.96
2022-11-13 23:13:00,,0820.6,5.01,0.00,24.1,22.3,00.0,32.9,25.9,07.4,0000.0,0014.29,0003.34,0001.88
2022-11-13 23:14:00,,0820.7,5.01,0.00,24.0,22.3,00.0,32.9,25.9,07.4,0000.0,0012.83,0003.34,0001.83
2022-11-13 23:15:00,,0820.7,5.00,0.00,24.0,22.4,00.0,32.9,25.9,07.5,0000.0,0011.96,0003.36,0001.81
2022-11-13 23:16:00,,0820.7,5.00,0.00,24.0,22.5,00.0,32.9,25.9,07.5,0000.0,0012.86,0003.39,0001.78
2022-11-13 23:17:00,,0820.8,4.99,0.00,24.0,22.5,00.0,32.9,25.9,07.5,0000.0,0013.12,0003.37,0001.75
2022-11-13 23:18:00,,0820.8,5.00,0.00,24.0,22.5,00.0,32.9,25.9,07.5,0000.0,0013.57,0003.41,0001.73
2022-11-13 23:19:00,,0820.8,5.02,0.00,24.0,22.5,00.0,32.9,25.9,07.4,0000.0,0014.49,0003.44,0001.72
2022-11-13 23:20:00,,0820.8,5.00,0.00,24.0,22.6,00.0,32.9,25.9,07.4,0000.0,0016.32,0003.48,0001.71
2022-11-13 23:21:00,,0820.9,4.99,0.00,24.0,22.6,00.0,32.9,25.9,07.3,0000.0,0016.18,0003.50,0001.71
2022-11-13 23:22:00,,0820.9,4.99,0.00,24.0,22.6,00.0,32.9,25.9,07.3,0000.0,0015.25,0003.50,0001.71
2022-11-13 23:23:00,,0820.9,5.02,0.00,24.0,22.6,00.0,32.9,25.9,07.3,0000.0,0014.76,0003.52,0001.71
2022-11-13 23:24:00,,0820.9,4.99,0.00,24.0,22.6,00.0,32.8,25.9,07.3,0000.0,0015.80,0003.48,0001.70
2022-11-13 23:25:00,,0820.9,4.99,0.00,24.0,22.5,00.0,32.8,25.9,07.2,0000.0,0017.78,0003.48,0001.70
2022-11-13 23:26:00,,0821.0,5.00,0.00,24.0,22.5,00.0,32.8,25.9,07.2,0000.0,0018.20,0003.46,0001.68
2022-11-13 23:27:00,,0821.0,5.01,0.00,24.0,22.5,00.0,32.9,25.9,07.2,0000.0,0018.47,0003.47,0001.68
2022-11-13 23:28:00,,0821.0,5.00,0.00,24.0,22.5,00.0,32.8,25.9,07.3,0000.0,0017.99,0003.43,0001.67
2022-11-13 23:29:00,,0821.1,5.00,0.00,24.0,22.5,00.0,32.8,25.9,07.3,0000.0,0017.34,0003.42,0001.67
2022-11-13 23:30:00,,0821.1,5.00,0.00,24.0,22.6,00.0,32.8,25.9,07.3,0000.0,0018.08,0003.44,0001.66
2022-11-13 23:31:00,,0821.1,4.99,0.00,24.0,22.5,00.0,32.8,25.9,07.1,0000.0,0017.18,0003.41,0001.66
2022-11-13 23:32:00,,0821.1,5.01,0.00,24.0,22.5,00.0,32.8,25.9,07.1,0000.0,0018.03,0003.45,0001.65
2022-11-13 23:33:00,,0821.2,5.01,0.00,24.0,22.5,00.0,32.8,25.9,07.1,0000.0,0018.60,0003.51,0001.65
2022-11-13 23:34:00,,0821.2,5.00,0.00,24.0,22.5,00.0,32.8,25.9,07.1,0000.0,0018.54,0003.52,0001.64
2022-11-13 23:35:00,,0821.2,5.00,0.00,24.0,22.5,00.0,32.8,25.9,07.1,0000.0,0018.59,0003.54,0001.65
2022-11-13 23:36:00,,0821.2,5.00,0.00,24.0,22.5,00.0,32.8,25.9,07.2,0000.0,0016.87,0003.51,0001.66
2022-11-13 23:37:00,,0821.2,5.01,0.00,24.0,22.5,00.0,32.8,25.8,07.1,0000.0,0016.71,0003.51,0001.67
2022-11-13 23:38:00,,0821.3,5.01,0.00,24.0,22.5,00.0,32.8,25.9,07.1,0000.0,0015.78,0003.49,0001.67
2022-11-13 23:39:00,,0821.3,5.00,0.00,24.0,22.5,00.0,32.8,25.9,07.1,0000.0,0015.80,0003.52,0001.68
2022-11-13 23:40:00,,0821.3,5.00,0.00,24.0,22.5,00.0,32.8,25.8,07.1,0000.0,0015.41,0003.50,0001.68
2022-11-13 23:41:00,,0821.4,4.99,0.00,24.0,22.5,00.0,32.8,25.8,07.1,0000.0,0013.74,0003.46,0001.67
2022-11-13 23:42:00,,0821.4,4.99,0.00,24.0,22.5,00.0,32.8,25.8,07.0,0000.0,0013.21,0003.43,0001.67
2022-11-13 23:43:00,,0821.4,5.01,0.00,24.0,22.4,00.0,32.8,25.8,07.0,0000.0,0013.27,0003.39,0001.69
2022-11-13 23:44:00,,0821.4,5.00,0.00,23.9,22.4,00.0,32.8,25.8,07.1,0000.0,0012.39,0003.34,0001.68
2022-11-13 23:45:00,,0821.4,4.99,0.00,23.9,22.4,00.0,32.8,25.8,06.9,0000.0,0012.24,0003.33,0001.68
2022-11-13 23:46:00,,0821.4,4.99,0.00,23.9,22.4,00.0,32.8,25.8,06.9,0000.0,0012.26,0003.30,0001.67
2022-11-13 23:47:00,,0821.5,5.02,0.00,23.9,22.5,00.0,32.8,25.7,07.0,0000.0,0012.52,0003.34,0001.68
2022-11-13 23:48:00,,0821.5,4.99,0.00,23.9,22.5,00.0,32.8,25.7,07.0,0000.0,0013.23,0003.33,0001.66
2022-11-13 23:49:00,,0821.6,5.00,0.00,23.9,22.4,00.0,32.8,25.7,07.0,0000.0,0013.68,0003.30,0001.66
2022-11-13 23:50:00,,0821.5,4.99,0.00,23.9,22.4,00.0,32.8,25.7,07.0,0000.0,0014.45,0003.28,0001.66
2022-11-13 23:51:00,,0821.6,4.99,0.00,23.9,22.4,00.0,32.8,25.7,07.0,0000.0,0015.98,0003.27,0001.66
2022-11-13 23:52:00,,0821.7,5.01,0.00,23.9,22.4,00.0,32.7,25.7,07.0,0000.0,0016.42,0003.26,0001.66
2022-11-13 23:53:00,,0821.7,4.99,0.00,23.9,22.4,00.0,32.7,25.7,07.0,0000.0,0016.57,0003.29,0001.65
2022-11-13 23:54:00,,0821.7,5.01,0.00,23.9,22.4,00.0,32.7,25.7,07.1,0000.0,0015.64,0003.29,0001.64
2022-11-13 23:55:00,,0821.8,5.00,0.00,23.9,22.4,00.0,32.7,25.7,07.1,0000.0,0016.12,0003.32,0001.63
2022-11-13 23:56:00,,0821.8,4.99,0.00,23.9,22.4,00.0,32.7,25.7,07.1,0000.0,0016.41,0003.35,0001.63
2022-11-13 23:57:00,,0821.8,5.00,0.00,23.9,22.4,00.0,32.7,25.7,07.2,0000.0,0015.34,0003.39,0001.64
2022-11-13 23:58:00,,0821.8,5.01,0.00,23.9,22.5,00.0,32.7,25.7,07.1,0000.0,0014.79,0003.35,0001.63
2022-11-13 23:59:00,,0821.8,5.00,0.00,23.9,22.5,00.0,32.7,25.7,07.0,0000.0,0014.16,0003.37,0001.62
